Location: Pasadena, ca
(34.1243°N, 118.1037°W)
Time: 01:13:13
(UTC-07:00)

Tiangong 1 - Pass Details

Date: 15 October 2017
Orbit: 292 x 320 km, 42.8° (Epoch: 22 October)

Event Time Altitude Azimuth Distance (km) Brightness Sun altitude
Rises 20:18:02 0° 292° (WNW) 2,031 5.9 -25.6°
Reaches altitude 10° 20:20:06 10° 283° (WNW) 1,195 4.6 -26.1°
Enters shadow 20:20:29 13° 279° (W) 1,048 4.2 -26.1°
